Regional Weather Roundup
Issued by NWS

Home | Current Version | Previous Version | Graphics & Text | Print | Product List | Glossary On
Versions: 1 2 3 4 5 6 7 8 9 10 11 12 13 14 15 16 17 18 19 20 21 22 23 24 25 26 27 28 29 30 31 32 33 34 35 36 37 38 39 40 41 42 43 44 45 46 47 48 49 50
792
ASUS45 KBOU 221710
RWRCO

WEATHER ROUNDUP FOR COLORADO
NATIONAL WEATHER SERVICE DENVER/BOULDER CO
1000 AM MST THU FEB 22 2018

NOTE: "FAIR" INDICATES FEW OR NO CLOUDS BELOW 12000 FEET WITH NO
SIGNIFICANT WEATHER AND/OR OBSTRUCTIONS TO VISIBILITY.

COZ001>005-013-030-031-221800-
...NORTHWEST COLORADO...

CITY           SKY/WX    TMP DP  RH WIND       PRES   REMARKS
CRAIG          LGT SNOW  17  12  80 CALM      29.98S
HAYDEN         FAIR      14   9  80 S5        29.96S WCI   6
MEEKER         CLOUDY    22  17  81 CALM      29.95S HAZE
RANGELY        LGT SNOW  19  15  84 CALM      30.02F
RABBIT EARS PA FLURRIES  14  10  85 SW7       29.80F WCI   4
STEAMBOAT SPGS FAIR      13   9  83 CALM      29.93F
WALDEN         FAIR      12   5  73 S3        29.90S
$$

COZ006>008-011-221800-
...WEST CENTRAL VALLEYS...

CITY           SKY/WX    TMP DP  RH WIND       PRES   REMARKS
GRAND JUNCTION CLOUDY    30  27  88 SE3       30.01R
MONTROSE       LGT SNOW  27  23  85 CALM      30.00S FOG
EAGLE          FAIR      23  16  74 SE3       29.95F
RIFLE          CLOUDY    26  23  88 CALM      29.98S
DELTA          LGT RAIN  30  26  83 CALM      30.01S
NUCLA          PTSUNNY   28  27  93 CALM      30.04R
$$

COZ017>023-064>068-221800-
...SOUTHWEST COLORADO...

CITY           SKY/WX    TMP DP  RH WIND       PRES   REMARKS
DURANGO        CLOUDY    28  25  88 SW10      30.00R WCI  19
CORTEZ         PTSUNNY   35  24  64 S15       30.02S WCI  25
PAGOSA SPRINGS LGT SNOW  26  20  76 SW14      29.98R WCI  15
TELLURIDE      LGT SNOW  21  12  69 W10       29.92R WCI  10
WOLF CREEK PAS CLOUDY     9   7  92 MISG      29.87S
$$

COZ009-010-012-014-032>034-037-058>063-221800-
...CENTRAL COLORADO...

CITY           SKY/WX    TMP DP  RH WIND       PRES   REMARKS
ASPEN          CLOUDY    22  15  75 CALM      29.87F
BUENA VISTA    FAIR      23  17  78 CALM      29.87F
COPPER MTN     CLOUDY    14   5  67 SW6       29.79S WCI   5
BERTHOUD PASS  HAZE       3  -6  66 W15G24    29.77F VSB<1/4 WCI -15
COTTONWOOD PAS CLOUDY    27  19  74 N3        29.84S
GUNNISON       CLOUDY    21  17  84 CALM      29.90F
GRANBY         CLOUDY    11   6  81 CALM      29.90F HAZE
KREMMLING      FAIR      21  10  63 CALM      29.94F
LEADVILLE      CLOUDY    16  11  80 S7        29.81F WCI   6
MONARCH PASS   SNOW       9   5  85 W29       29.90S VSB 1/2 WCI -14
SALIDA         FAIR      24  18  80 CALM      29.97F
SUNLIGHT       LGT SNOW  12   9  85 SW9G17    29.87R WCI   0
WILKERSON PASS HVY SNOW N/A N/A N/A SW12G20   29.83S VSB<1/4
$$

COZ069>075-221800-
...SAN LUIS VALLEY/SANGRE DE CRISTO MOUNTAINS...

CITY           SKY/WX    TMP DP  RH WIND       PRES   REMARKS
ALAMOSA        FAIR      32  20  61 S20G31    29.90F WCI  20
DEL NORTE      PTSUNNY   28  18  65 W16       29.91R WCI  17
LA VETA PASS   LGT SNOW  19  18  93 S20G35    29.95F WCI   4
SAGUACHE       NOT AVBL
$$

COZ035-036-038>040-221800-
...NORTHERN COLORADO FRONT RANGE...

CITY           SKY/WX    TMP DP  RH WIND       PRES   REMARKS
DENVER INTL AP PTSUNNY   18  12  77 W7        29.96F WCI   9
AURORA         PTSUNNY   21  13  71 CALM      29.95F
FRONT RANGE AP PTSUNNY   23  18  80 CALM      29.97S
ERIE MUNI ARPT LGT SNOW  17  13  83 N5        30.05S WCI  10
BOULDER MUN AP CLOUDY    19  14  79 CALM      29.98S
CENTENNIAL     PTSUNNY   22  13  68 E3        29.93F
BROOMFIELD     CLOUDY    19  12  73 CALM      29.97F VSB 3/4
FORT COLLINS   PTSUNNY   16  11  80 N8        30.01F HAZE    WCI   5
LONGMONT       CLOUDY    23  14  70 N5        30.02F WCI  16
$$

COZ041-046-047-076>085-087-088-221800-
...PIKES PEAK/PALMER DIVIDE AND SOUTHERN FOOTHILLS...

CITY           SKY/WX    TMP DP  RH WIND       PRES   REMARKS
COLO. SPRINGS  LGT SNOW  18  13  80 CALM      29.94S FOG
A. F. ACADEMY  PTSUNNY   16  11  81 CALM      29.91S
SCHRIEVER AFB  NOT AVBL
CHEYENNE MTN   LGT SNOW  14  12  93 CALM      29.84S
ELLICOTT       CLOUDY   N/A N/A N/A NW3       29.93S
FALCON         LGT SNOW  18  16  93 SW3       29.91S
FORT CARSON    CLOUDY    19  13  77 CALM      29.94S
LIMON          FAIR      19  10  68 S8        29.97F WCI   9
MONUMENT HILL  FAIR      19  12  73 NW8       29.90S WCI   9
CANON CITY     MOSUNNY   21  16  79 S5        29.96F WCI  15
WALSENBURG     NOT AVBL
TRINIDAD       FAIR      27  17  66 N5        29.96S WCI  22
$$

COZ042>045-048>051-090-091-221800-
...NORTHEAST COLORADO...

CITY           SKY/WX    TMP DP  RH WIND       PRES   REMARKS
GREELEY ARPT   LGT SNOW  15  11  83 NW7       30.03F FOG     WCI   5
AKRON          CLOUDY    19   9  65 S12       30.02F WCI   7
BURLINGTON     FAIR      20  10  65 S8        30.06F WCI  10
WRAY           FAIR      28  10  47 S6        30.10F WCI  22
YUMA           NOT AVBL
STERLING       CLOUDY    23  10  58 S10       30.07S WCI  12
HOLYOKE        FAIR      25  10  54 S13       30.12F WCI  13
FORT MORGAN    CLOUDY    21  13  71 SE6       30.03F WCI  14
$$

COZ086-089-092>099-221800-
...SOUTHEAST COLORADO...

CITY           SKY/WX    TMP DP  RH WIND       PRES   REMARKS
PUEBLO         CLOUDY    21  14  74 SE3       30.01F
LA JUNTA       FAIR      24  13  62 W7        30.04F WCI  16
LAMAR          FAIR      29  11  47 SE8       30.04F WCI  21
SPRINGFIELD      N/A     33  12  41 S21       30.00F WCI  21
$$




USA.gov is the U.S. government's official web portal to all federal, state and local government web resources and services.